Year,Month,Day,Hour,Minute,Value (Times are PST for temperature in C)
2015,08,19,00,00,20.60
2015,08,19,00,01,20.60
2015,08,19,00,02,20.60
2015,08,19,00,03,20.50
2015,08,19,00,04,20.50
2015,08,19,00,05,20.50
2015,08,19,00,06,20.50
2015,08,19,00,07,20.40
2015,08,19,00,08,20.50
2015,08,19,00,09,20.50
2015,08,19,00,10,20.50
2015,08,19,00,11,20.50
2015,08,19,00,12,20.50
2015,08,19,00,13,20.50
2015,08,19,00,14,20.50
2015,08,19,00,15,20.50
2015,08,19,00,16,20.50
2015,08,19,00,17,20.50
2015,08,19,00,18,20.50
2015,08,19,00,19,20.40
2015,08,19,00,20,20.40
2015,08,19,00,21,20.40
2015,08,19,00,22,20.40
2015,08,19,00,23,20.40
2015,08,19,00,24,20.40
2015,08,19,00,25,20.30
2015,08,19,00,26,20.30
2015,08,19,00,27,20.30
2015,08,19,00,28,20.30
2015,08,19,00,29,20.30
2015,08,19,00,30,20.30
2015,08,19,00,31,20.30
2015,08,19,00,32,20.30
2015,08,19,00,33,20.20
2015,08,19,00,34,20.20
2015,08,19,00,35,20.20
2015,08,19,00,36,20.20
2015,08,19,00,37,20.20
2015,08,19,00,38,20.20
2015,08,19,00,39,20.20
2015,08,19,00,40,20.20
2015,08,19,00,41,20.20
2015,08,19,00,42,20.20
2015,08,19,00,43,20.10
2015,08,19,00,44,20.10
2015,08,19,00,45,20.10
2015,08,19,00,46,20.10
2015,08,19,00,47,20.10
2015,08,19,00,48,20.10
2015,08,19,00,49,20.10
2015,08,19,00,50,20.00
2015,08,19,00,51,20.00
2015,08,19,00,52,20.00
2015,08,19,00,53,20.00
2015,08,19,00,54,20.00
2015,08,19,00,55,19.90
2015,08,19,00,56,19.90
2015,08,19,00,57,19.90
2015,08,19,00,58,19.90
2015,08,19,00,59,19.80
2015,08,19,01,00,19.80
2015,08,19,01,01,19.80
2015,08,19,01,02,19.80
2015,08,19,01,03,19.70
2015,08,19,01,04,19.70
2015,08,19,01,05,19.70
2015,08,19,01,06,19.60
2015,08,19,01,07,19.60
2015,08,19,01,08,19.50
2015,08,19,01,09,19.40
2015,08,19,01,10,19.40
2015,08,19,01,11,19.40
2015,08,19,01,12,19.30
2015,08,19,01,13,19.30
2015,08,19,01,14,19.30
2015,08,19,01,15,19.20
2015,08,19,01,16,19.20
2015,08,19,01,17,19.10
2015,08,19,01,18,19.10
2015,08,19,01,19,19.00
2015,08,19,01,20,19.00
2015,08,19,01,21,18.90
2015,08,19,01,22,18.90
2015,08,19,01,23,18.80
2015,08,19,01,24,18.80
2015,08,19,01,25,18.80
2015,08,19,01,26,18.70
2015,08,19,01,27,18.70
2015,08,19,01,28,18.70
2015,08,19,01,29,18.70
2015,08,19,01,30,18.60
2015,08,19,01,31,18.60
2015,08,19,01,32,18.60
2015,08,19,01,33,18.50
2015,08,19,01,34,18.50
2015,08,19,01,35,18.50
2015,08,19,01,36,18.40
2015,08,19,01,37,18.40
2015,08,19,01,38,18.30
2015,08,19,01,39,18.30
2015,08,19,01,40,18.20
2015,08,19,01,41,18.20
2015,08,19,01,42,18.20
2015,08,19,01,43,18.20
2015,08,19,01,44,18.10
2015,08,19,01,45,18.10
2015,08,19,01,46,18.00
2015,08,19,01,47,18.00
2015,08,19,01,48,17.90
2015,08,19,01,49,17.90
2015,08,19,01,50,17.90
2015,08,19,01,51,17.90
2015,08,19,01,52,17.90
2015,08,19,01,53,17.90
2015,08,19,01,54,17.80
2015,08,19,01,55,17.80
2015,08,19,01,56,17.80
2015,08,19,01,57,17.80
2015,08,19,01,58,17.70
2015,08,19,01,59,17.70
2015,08,19,02,00,17.60
2015,08,19,02,01,17.60
2015,08,19,02,02,17.60
2015,08,19,02,03,17.50
2015,08,19,02,04,17.50
2015,08,19,02,05,17.40
2015,08,19,02,06,17.40
2015,08,19,02,07,17.40
2015,08,19,02,08,17.40
2015,08,19,02,09,17.30
2015,08,19,02,10,17.30
2015,08,19,02,11,17.30
2015,08,19,02,12,17.30
2015,08,19,02,13,17.30
2015,08,19,02,14,17.20
2015,08,19,02,15,17.20
2015,08,19,02,16,17.20
2015,08,19,02,17,17.20
2015,08,19,02,18,17.20
2015,08,19,02,19,17.20
2015,08,19,02,20,17.20
2015,08,19,02,21,17.20
2015,08,19,02,22,17.20
2015,08,19,02,23,17.20
2015,08,19,02,24,17.10
2015,08,19,02,25,17.10
2015,08,19,02,26,17.10
2015,08,19,02,27,17.10
2015,08,19,02,28,17.00
2015,08,19,02,29,17.00
2015,08,19,02,30,16.90
2015,08,19,02,31,16.90
2015,08,19,02,32,16.90
2015,08,19,02,33,16.80
2015,08,19,02,34,16.80
2015,08,19,02,35,16.80
2015,08,19,02,36,16.70
2015,08,19,02,37,16.70
2015,08,19,02,38,16.70
2015,08,19,02,39,16.70
2015,08,19,02,40,16.70
2015,08,19,02,41,16.70
2015,08,19,02,42,16.70
2015,08,19,02,43,16.60
2015,08,19,02,44,16.60
2015,08,19,02,45,16.60
2015,08,19,02,46,16.50
2015,08,19,02,47,16.50
2015,08,19,02,48,16.50
2015,08,19,02,49,16.40
2015,08,19,02,50,16.40
2015,08,19,02,51,16.30
2015,08,19,02,52,16.30
2015,08,19,02,53,16.30
2015,08,19,02,54,16.30
2015,08,19,02,55,16.20
2015,08,19,02,56,16.20
2015,08,19,02,57,16.20
2015,08,19,02,58,16.20
2015,08,19,02,59,16.10
2015,08,19,03,00,16.10
2015,08,19,03,01,16.10
2015,08,19,03,02,16.10
2015,08,19,03,03,16.00
2015,08,19,03,04,16.00
2015,08,19,03,05,16.00
2015,08,19,03,06,15.90
2015,08,19,03,07,15.90
2015,08,19,03,08,15.90
2015,08,19,03,09,15.90
2015,08,19,03,10,15.80
2015,08,19,03,11,15.80
2015,08,19,03,12,15.80
2015,08,19,03,13,15.80
2015,08,19,03,14,15.70
2015,08,19,03,15,15.70
2015,08,19,03,16,15.70
2015,08,19,03,17,15.70
2015,08,19,03,18,15.70
2015,08,19,03,19,15.60
2015,08,19,03,20,15.60
2015,08,19,03,21,15.60
2015,08,19,03,22,15.60
2015,08,19,03,23,15.50
2015,08,19,03,24,15.50
2015,08,19,03,25,15.50
2015,08,19,03,26,15.40
2015,08,19,03,27,15.40
2015,08,19,03,28,15.40
2015,08,19,03,29,15.30
2015,08,19,03,30,15.30
2015,08,19,03,31,15.30
2015,08,19,03,32,15.30
2015,08,19,03,33,15.30
2015,08,19,03,34,15.20
2015,08,19,03,35,15.20
2015,08,19,03,36,15.20
2015,08,19,03,37,15.20
2015,08,19,03,38,15.20
2015,08,19,03,39,15.20
2015,08,19,03,40,15.20
2015,08,19,03,41,15.10
2015,08,19,03,42,15.10
2015,08,19,03,43,15.10
2015,08,19,03,44,15.10
2015,08,19,03,45,15.10
2015,08,19,03,46,15.10
2015,08,19,03,47,15.10
2015,08,19,03,48,15.10
2015,08,19,03,49,15.10
2015,08,19,03,50,15.10
2015,08,19,03,51,15.10
2015,08,19,03,52,15.10
2015,08,19,03,53,15.10
2015,08,19,03,54,15.10
2015,08,19,03,55,15.20
2015,08,19,03,56,15.20
2015,08,19,03,57,15.30
2015,08,19,03,58,15.50
2015,08,19,03,59,15.60
2015,08,19,04,00,15.70
2015,08,19,04,01,15.90
2015,08,19,04,02,16.00
2015,08,19,04,03,16.20
2015,08,19,04,04,16.30
2015,08,19,04,05,16.50
2015,08,19,04,06,16.60
2015,08,19,04,07,16.70
2015,08,19,04,08,16.90
2015,08,19,04,09,17.00
2015,08,19,04,10,17.10
2015,08,19,04,11,17.20
2015,08,19,04,12,17.20
2015,08,19,04,13,17.30
2015,08,19,04,14,17.40
2015,08,19,04,15,17.50
2015,08,19,04,16,17.50
2015,08,19,04,17,17.60
2015,08,19,04,18,17.60
2015,08,19,04,19,17.60
2015,08,19,04,20,17.60
2015,08,19,04,21,17.50
2015,08,19,04,22,17.50
2015,08,19,04,23,17.40
2015,08,19,04,24,17.40
2015,08,19,04,25,17.30
2015,08,19,04,26,17.20
2015,08,19,04,27,17.10
2015,08,19,04,28,17.00
2015,08,19,04,29,17.00
2015,08,19,04,30,16.90
2015,08,19,04,31,16.80
2015,08,19,04,32,16.70
2015,08,19,04,33,16.60
2015,08,19,04,34,16.50
2015,08,19,04,35,16.30
2015,08,19,04,36,16.20
2015,08,19,04,37,16.10
2015,08,19,04,38,15.90
2015,08,19,04,39,15.80
2015,08,19,04,40,15.70
2015,08,19,04,41,15.70
2015,08,19,04,42,15.60
2015,08,19,04,43,15.50
2015,08,19,04,44,15.40
2015,08,19,04,45,15.40
2015,08,19,04,46,15.30
2015,08,19,04,47,15.30
2015,08,19,04,48,15.20
2015,08,19,04,49,15.20
2015,08,19,04,50,15.10
2015,08,19,04,51,15.10
2015,08,19,04,52,15.10
2015,08,19,04,53,15.10
2015,08,19,04,54,15.00
2015,08,19,04,55,15.00
2015,08,19,04,56,15.00
2015,08,19,04,57,15.00
2015,08,19,04,58,15.00
2015,08,19,04,59,15.00
2015,08,19,05,00,14.90
2015,08,19,05,01,14.90
2015,08,19,05,02,15.00
2015,08,19,05,03,15.00
2015,08,19,05,04,14.90
2015,08,19,05,05,15.00
2015,08,19,05,06,15.00
2015,08,19,05,07,15.10
2015,08,19,05,08,15.10
2015,08,19,05,09,15.20
2015,08,19,05,10,15.30
2015,08,19,05,11,15.40
2015,08,19,05,12,15.40
2015,08,19,05,13,15.50
2015,08,19,05,14,15.60
2015,08,19,05,15,15.60
2015,08,19,05,16,15.70
2015,08,19,05,17,15.70
2015,08,19,05,18,15.80
2015,08,19,05,19,15.80
2015,08,19,05,20,15.80
2015,08,19,05,21,15.80
2015,08,19,05,22,15.90
2015,08,19,05,23,15.90
2015,08,19,05,24,16.00
2015,08,19,05,25,16.00
2015,08,19,05,26,16.00
2015,08,19,05,27,16.10
2015,08,19,05,28,16.10
2015,08,19,05,29,16.10
2015,08,19,05,30,16.20
2015,08,19,05,31,16.20
2015,08,19,05,32,16.20
2015,08,19,05,33,16.20
2015,08,19,05,34,16.30
2015,08,19,05,35,16.30
2015,08,19,05,36,16.30
2015,08,19,05,37,16.30
2015,08,19,05,38,16.20
2015,08,19,05,39,16.20
2015,08,19,05,40,16.20
2015,08,19,05,41,16.20
2015,08,19,05,42,16.20
2015,08,19,05,43,16.20
2015,08,19,05,44,16.20
2015,08,19,05,45,16.20
2015,08,19,05,46,16.20
2015,08,19,05,47,16.20
2015,08,19,05,48,16.20
2015,08,19,05,49,16.20
2015,08,19,05,50,16.20
2015,08,19,05,51,16.20
2015,08,19,05,52,16.20
2015,08,19,05,53,16.30
2015,08,19,05,54,16.30
2015,08,19,05,55,16.30
2015,08,19,05,56,16.30
2015,08,19,05,57,16.30
2015,08,19,05,58,16.30
2015,08,19,05,59,16.30
2015,08,19,06,00,16.30
2015,08,19,06,01,16.30
2015,08,19,06,02,16.30
2015,08,19,06,03,16.30
2015,08,19,06,04,16.30
2015,08,19,06,05,16.40
2015,08,19,06,06,16.40
2015,08,19,06,07,16.40
2015,08,19,06,08,16.40
2015,08,19,06,09,16.40
2015,08,19,06,10,16.40
2015,08,19,06,11,16.40
2015,08,19,06,12,16.40
2015,08,19,06,13,16.40
2015,08,19,06,14,16.30
2015,08,19,06,15,16.30
2015,08,19,06,16,16.30
2015,08,19,06,17,16.30
2015,08,19,06,18,16.30
2015,08,19,06,19,16.30
2015,08,19,06,20,16.30
2015,08,19,06,21,16.30
2015,08,19,06,22,16.20
2015,08,19,06,23,16.30
2015,08,19,06,24,16.30
2015,08,19,06,25,16.30
2015,08,19,06,26,16.30
2015,08,19,06,27,16.30
2015,08,19,06,28,16.40
2015,08,19,06,29,16.40
2015,08,19,06,30,16.50
2015,08,19,06,31,16.50
2015,08,19,06,32,16.60
2015,08,19,06,33,16.70
2015,08,19,06,34,16.70
2015,08,19,06,35,16.70
2015,08,19,06,36,16.80
2015,08,19,06,37,16.80
2015,08,19,06,38,16.70
2015,08,19,06,39,16.70
2015,08,19,06,40,16.80
2015,08,19,06,41,16.70
2015,08,19,06,42,16.70
2015,08,19,06,43,16.80
2015,08,19,06,44,16.80
2015,08,19,06,45,16.80
2015,08,19,06,46,16.80
2015,08,19,06,47,16.80
2015,08,19,06,48,16.90
2015,08,19,06,49,16.80
2015,08,19,06,50,16.80
2015,08,19,06,51,16.80
2015,08,19,06,52,16.80
2015,08,19,06,53,16.80
2015,08,19,06,54,16.70
2015,08,19,06,55,16.70
2015,08,19,06,56,16.70
2015,08,19,06,57,16.70
2015,08,19,06,58,16.60
2015,08,19,06,59,16.60
2015,08,19,07,00,16.50
2015,08,19,07,01,16.50
2015,08,19,07,02,16.40
2015,08,19,07,03,16.40
2015,08,19,07,04,16.40
2015,08,19,07,05,16.50
2015,08,19,07,06,16.50
2015,08,19,07,07,16.70
2015,08,19,07,08,16.80
2015,08,19,07,09,16.80
2015,08,19,07,10,16.90
2015,08,19,07,11,16.90
2015,08,19,07,12,17.00
2015,08,19,07,13,17.00
2015,08,19,07,14,17.00
2015,08,19,07,15,17.00
2015,08,19,07,16,16.90
2015,08,19,07,17,16.80
2015,08,19,07,18,16.70
2015,08,19,07,19,16.60
2015,08,19,07,20,16.50
2015,08,19,07,21,16.40
2015,08,19,07,22,16.40
2015,08,19,07,23,16.30
2015,08,19,07,24,16.20
2015,08,19,07,25,16.20
2015,08,19,07,26,16.10
2015,08,19,07,27,16.10
2015,08,19,07,28,16.10
2015,08,19,07,29,16.10
2015,08,19,07,30,16.10
2015,08,19,07,31,16.10
2015,08,19,07,32,16.10
2015,08,19,07,33,16.10
2015,08,19,07,34,16.10
2015,08,19,07,35,16.10
2015,08,19,07,36,16.10
2015,08,19,07,37,16.10
2015,08,19,07,38,16.10
2015,08,19,07,39,16.10
2015,08,19,07,40,16.20
2015,08,19,07,41,16.20
2015,08,19,07,42,16.30
2015,08,19,07,43,16.30
2015,08,19,07,44,16.40
2015,08,19,07,45,16.50
2015,08,19,07,46,16.70
2015,08,19,07,47,16.80
2015,08,19,07,48,17.00
2015,08,19,07,49,17.20
2015,08,19,07,50,17.30
2015,08,19,07,51,17.40
2015,08,19,07,52,17.60
2015,08,19,07,53,17.70
2015,08,19,07,54,17.80
2015,08,19,07,55,17.90
2015,08,19,07,56,17.90
2015,08,19,07,57,18.00
2015,08,19,07,58,18.00
2015,08,19,07,59,18.00
2015,08,19,08,00,18.00
2015,08,19,08,01,18.00
2015,08,19,08,02,17.90
2015,08,19,08,03,17.90
2015,08,19,08,04,17.80
2015,08,19,08,05,17.80
2015,08,19,08,06,17.80
2015,08,19,08,07,17.90
2015,08,19,08,08,17.90
2015,08,19,08,09,18.00
2015,08,19,08,10,18.10
2015,08,19,08,11,18.20
2015,08,19,08,12,18.30
2015,08,19,08,13,18.40
2015,08,19,08,14,18.50
2015,08,19,08,15,18.50
2015,08,19,08,16,18.60
2015,08,19,08,17,18.60
2015,08,19,08,18,18.70
2015,08,19,08,19,18.70
2015,08,19,08,20,18.80
2015,08,19,08,21,18.80
2015,08,19,08,22,18.80
2015,08,19,08,23,18.90
2015,08,19,08,24,18.90
2015,08,19,08,25,19.00
2015,08,19,08,26,19.00
2015,08,19,08,27,19.10
2015,08,19,08,28,19.10
2015,08,19,08,29,19.10
2015,08,19,08,30,19.10
2015,08,19,08,31,19.20
2015,08,19,08,32,19.20
2015,08,19,08,33,19.20
2015,08,19,08,34,19.20
2015,08,19,08,35,19.20
2015,08,19,08,36,19.20
2015,08,19,08,37,19.20
2015,08,19,08,38,19.10
2015,08,19,08,39,19.20
2015,08,19,08,40,19.20
2015,08,19,08,41,19.20
2015,08,19,08,42,19.20
2015,08,19,08,43,19.30
2015,08,19,08,44,19.30
2015,08,19,08,45,19.30
2015,08,19,08,46,19.30
2015,08,19,08,47,19.30
2015,08,19,08,48,19.30
2015,08,19,08,49,19.30
2015,08,19,08,50,19.40
2015,08,19,08,51,19.40
2015,08,19,08,52,19.40
2015,08,19,08,53,19.40
2015,08,19,08,54,19.40
2015,08,19,08,55,19.40
2015,08,19,08,56,19.40
2015,08,19,08,57,19.40
2015,08,19,08,58,19.50
2015,08,19,08,59,19.50
2015,08,19,09,00,19.50
2015,08,19,09,01,19.50
2015,08,19,09,02,19.60
2015,08,19,09,03,19.60
2015,08,19,09,04,19.60
2015,08,19,09,05,19.70
2015,08,19,09,06,19.70
2015,08,19,09,07,19.80
2015,08,19,09,08,19.90
2015,08,19,09,09,19.90
2015,08,19,09,10,19.90
2015,08,19,09,11,19.90
2015,08,19,09,12,19.90
2015,08,19,09,13,19.90
2015,08,19,09,14,19.90
2015,08,19,09,15,19.90
2015,08,19,09,16,19.90
2015,08,19,09,17,19.90
2015,08,19,09,18,19.80
2015,08,19,09,19,19.80
2015,08,19,09,20,19.80
2015,08,19,09,21,19.80
2015,08,19,09,22,19.80
2015,08,19,09,23,19.80
2015,08,19,09,24,19.80
2015,08,19,09,25,19.80
2015,08,19,09,26,19.90
2015,08,19,09,27,19.90
2015,08,19,09,28,19.90
2015,08,19,09,29,20.00
2015,08,19,09,30,20.00
2015,08,19,09,31,20.00
2015,08,19,09,32,20.00
2015,08,19,09,33,20.10
2015,08,19,09,34,20.10
2015,08,19,09,35,20.10
2015,08,19,09,36,20.20
2015,08,19,09,37,20.20
2015,08,19,09,38,20.20
2015,08,19,09,39,20.30
2015,08,19,09,40,20.30
2015,08,19,09,41,20.20
2015,08,19,09,42,20.30
2015,08,19,09,43,20.30
2015,08,19,09,44,20.40
2015,08,19,09,45,20.40
2015,08,19,09,46,20.50
2015,08,19,09,47,20.60
2015,08,19,09,48,20.60
2015,08,19,09,49,20.70
2015,08,19,09,50,20.70
2015,08,19,09,51,20.80
2015,08,19,09,52,20.80
2015,08,19,09,53,20.80
2015,08,19,09,54,20.80
2015,08,19,09,55,20.80
2015,08,19,09,56,20.80
2015,08,19,09,57,20.80
2015,08,19,09,58,20.80
2015,08,19,09,59,20.90
2015,08,19,10,00,20.90
2015,08,19,10,01,20.80
2015,08,19,10,02,20.80
2015,08,19,10,03,20.80
2015,08,19,10,04,20.80
2015,08,19,10,05,20.80
2015,08,19,10,06,20.90
2015,08,19,10,07,20.90
2015,08,19,10,08,20.90
2015,08,19,10,09,21.00
2015,08,19,10,10,21.00
2015,08,19,10,11,21.10
2015,08,19,10,12,21.10
2015,08,19,10,13,21.10
2015,08,19,10,14,21.20
2015,08,19,10,15,21.20
2015,08,19,10,16,21.30
2015,08,19,10,17,21.30
2015,08,19,10,18,21.30
2015,08,19,10,19,21.30
2015,08,19,10,20,21.40
2015,08,19,10,21,21.40
2015,08,19,10,22,21.40
2015,08,19,10,23,21.40
2015,08,19,10,24,21.50
2015,08,19,10,25,21.50
2015,08,19,10,26,21.60
2015,08,19,10,27,21.60
2015,08,19,10,28,21.60
2015,08,19,10,29,21.60
2015,08,19,10,30,21.60
2015,08,19,10,31,21.70
2015,08,19,10,32,21.70
2015,08,19,10,33,21.80
2015,08,19,10,34,21.90
2015,08,19,10,35,22.00
2015,08,19,10,36,22.00
2015,08,19,10,37,22.20
2015,08,19,10,38,22.20
2015,08,19,10,39,22.30
2015,08,19,10,40,22.40
2015,08,19,10,41,22.50
2015,08,19,10,42,22.60
2015,08,19,10,43,22.70
2015,08,19,10,44,22.60
2015,08,19,10,45,22.60
2015,08,19,10,46,22.60
2015,08,19,10,47,22.60
2015,08,19,10,48,22.60
2015,08,19,10,49,22.50
2015,08,19,10,50,22.50
2015,08,19,10,51,22.60
2015,08,19,10,52,22.60
2015,08,19,10,53,22.70
2015,08,19,10,54,22.70
2015,08,19,10,55,22.70
2015,08,19,10,56,22.70
2015,08,19,10,57,22.70
2015,08,19,10,58,22.70
2015,08,19,10,59,22.70
2015,08,19,11,00,22.70
2015,08,19,11,01,22.80
2015,08,19,11,02,22.80
2015,08,19,11,03,22.80
2015,08,19,11,04,22.80
2015,08,19,11,05,22.70
2015,08,19,11,06,22.70
2015,08,19,11,07,22.70
2015,08,19,11,08,22.80
2015,08,19,11,09,22.90
2015,08,19,11,10,23.00
2015,08,19,11,11,23.10
2015,08,19,11,12,23.10
2015,08,19,11,13,23.10
2015,08,19,11,14,23.10
2015,08,19,11,15,23.10
2015,08,19,11,16,23.10
2015,08,19,11,17,23.20
2015,08,19,11,18,23.20
2015,08,19,11,19,23.30
2015,08,19,11,20,23.40
2015,08,19,11,21,23.40
2015,08,19,11,22,23.40
2015,08,19,11,23,23.40
2015,08,19,11,24,23.40
2015,08,19,11,25,23.40
2015,08,19,11,26,23.40
2015,08,19,11,27,23.40
2015,08,19,11,28,23.40
2015,08,19,11,29,23.40
2015,08,19,11,30,23.40
2015,08,19,11,31,23.40
2015,08,19,11,32,23.40
2015,08,19,11,33,23.40
2015,08,19,11,34,23.40
2015,08,19,11,35,23.30
2015,08,19,11,36,23.30
2015,08,19,11,37,23.30
2015,08,19,11,38,23.20
2015,08,19,11,39,23.20
2015,08,19,11,40,23.20
2015,08,19,11,41,23.30
2015,08,19,11,42,23.30
2015,08,19,11,43,23.30
2015,08,19,11,44,23.30
2015,08,19,11,45,23.30
2015,08,19,11,46,23.40
2015,08,19,11,47,23.40
2015,08,19,11,48,23.50
2015,08,19,11,49,23.50
2015,08,19,11,50,23.60
2015,08,19,11,51,23.60
2015,08,19,11,52,23.60
2015,08,19,11,53,23.60
2015,08,19,11,54,23.50
2015,08,19,11,55,23.50
2015,08,19,11,56,23.60
2015,08,19,11,57,23.60
2015,08,19,11,58,23.60
2015,08,19,11,59,23.70
2015,08,19,12,00,23.70
2015,08,19,12,01,23.70
2015,08,19,12,02,23.70
2015,08,19,12,03,23.70
2015,08,19,12,04,23.70
2015,08,19,12,05,23.70
2015,08,19,12,06,23.80
2015,08,19,12,07,23.80
2015,08,19,12,08,23.80
2015,08,19,12,09,23.80
2015,08,19,12,10,23.80
2015,08,19,12,11,23.80
2015,08,19,12,12,23.80
2015,08,19,12,13,23.80
2015,08,19,12,14,23.80
2015,08,19,12,15,23.80
2015,08,19,12,16,23.70
2015,08,19,12,17,23.70
2015,08,19,12,18,23.70
2015,08,19,12,19,23.70
2015,08,19,12,20,23.80
2015,08,19,12,21,23.80
2015,08,19,12,22,23.80
2015,08,19,12,23,23.80
2015,08,19,12,24,23.80
2015,08,19,12,25,23.80
2015,08,19,12,26,23.80
2015,08,19,12,27,23.90
2015,08,19,12,28,23.90
2015,08,19,12,29,24.00
2015,08,19,12,30,24.00
2015,08,19,12,31,24.10
2015,08,19,12,32,24.20
2015,08,19,12,33,24.30
2015,08,19,12,34,24.40
2015,08,19,12,35,24.50
2015,08,19,12,36,24.50
2015,08,19,12,37,24.60
2015,08,19,12,38,24.60
2015,08,19,12,39,24.50
2015,08,19,12,40,24.50
2015,08,19,12,41,24.60
2015,08,19,12,42,24.60
2015,08,19,12,43,24.60
2015,08,19,12,44,24.60
2015,08,19,12,45,24.50
2015,08,19,12,46,24.40
2015,08,19,12,47,24.40
2015,08,19,12,48,24.40
2015,08,19,12,49,24.30
2015,08,19,12,50,24.30
2015,08,19,12,51,24.40
2015,08,19,12,52,24.40
2015,08,19,12,53,24.40
2015,08,19,12,54,24.30
2015,08,19,12,55,24.20
2015,08,19,12,56,24.20
2015,08,19,12,57,24.10
2015,08,19,12,58,24.10
2015,08,19,12,59,24.10
2015,08,19,13,00,24.10
2015,08,19,13,01,24.10
2015,08,19,13,02,24.20
2015,08,19,13,03,24.20
2015,08,19,13,04,24.20
2015,08,19,13,05,24.20
2015,08,19,13,06,24.20
2015,08,19,13,07,24.20
2015,08,19,13,08,24.10
2015,08,19,13,09,24.20
2015,08,19,13,10,24.20
2015,08,19,13,11,24.20
2015,08,19,13,12,24.30
2015,08,19,13,13,24.40
2015,08,19,13,14,24.40
2015,08,19,13,15,24.40
2015,08,19,13,16,24.50
2015,08,19,13,17,24.40
2015,08,19,13,18,24.40
2015,08,19,13,19,24.30
2015,08,19,13,20,24.30
2015,08,19,13,21,24.20
2015,08,19,13,22,24.20
2015,08,19,13,23,24.20
2015,08,19,13,24,24.20
2015,08,19,13,25,24.20
2015,08,19,13,26,24.30
2015,08,19,13,27,24.30
2015,08,19,13,28,24.30
2015,08,19,13,29,24.30
2015,08,19,13,30,24.40
2015,08,19,13,31,24.40
2015,08,19,13,32,24.40
2015,08,19,13,33,24.40
2015,08,19,13,34,24.40
2015,08,19,13,35,24.40
2015,08,19,13,36,24.40
2015,08,19,13,37,24.40
2015,08,19,13,38,24.40
2015,08,19,13,39,24.50
2015,08,19,13,40,24.60
2015,08,19,13,41,24.70
2015,08,19,13,42,24.70
2015,08,19,13,43,24.60
2015,08,19,13,44,24.60
2015,08,19,13,45,24.60
2015,08,19,13,46,24.70
2015,08,19,13,47,24.80
2015,08,19,13,48,24.80
2015,08,19,13,49,24.90
2015,08,19,13,50,25.00
2015,08,19,13,51,25.10
2015,08,19,13,52,25.10
2015,08,19,13,53,25.10
2015,08,19,13,54,25.10
2015,08,19,13,55,25.10
2015,08,19,13,56,25.20
2015,08,19,13,57,25.20
2015,08,19,13,58,25.10
2015,08,19,13,59,25.10
2015,08,19,14,00,25.00
2015,08,19,14,01,24.90
2015,08,19,14,02,24.80
2015,08,19,14,03,24.80
2015,08,19,14,04,24.70
2015,08,19,14,05,24.70
2015,08,19,14,06,24.80
2015,08,19,14,07,24.90
2015,08,19,14,08,25.00
2015,08,19,14,09,25.10
2015,08,19,14,10,25.00
2015,08,19,14,11,25.00
2015,08,19,14,12,25.00
2015,08,19,14,13,25.10
2015,08,19,14,14,25.10
2015,08,19,14,15,25.20
2015,08,19,14,16,25.20
2015,08,19,14,17,25.20
2015,08,19,14,18,25.20
2015,08,19,14,19,25.10
2015,08,19,14,20,25.00
2015,08,19,14,21,24.90
2015,08,19,14,22,24.80
2015,08,19,14,23,24.80
2015,08,19,14,24,24.80
2015,08,19,14,25,24.80
2015,08,19,14,26,24.80
2015,08,19,14,27,24.80
2015,08,19,14,28,24.90
2015,08,19,14,29,25.00
2015,08,19,14,30,25.10
2015,08,19,14,31,25.10
2015,08,19,14,32,25.20
2015,08,19,14,33,25.20
2015,08,19,14,34,25.10
2015,08,19,14,35,25.10
2015,08,19,14,36,25.10
2015,08,19,14,37,25.20
2015,08,19,14,38,25.20
2015,08,19,14,39,25.20
2015,08,19,14,40,25.20
2015,08,19,14,41,25.20
2015,08,19,14,42,25.30
2015,08,19,14,43,25.30
2015,08,19,14,44,25.30
2015,08,19,14,45,25.30
2015,08,19,14,46,25.20
2015,08,19,14,47,25.20
2015,08,19,14,48,25.20
2015,08,19,14,49,25.30
2015,08,19,14,50,25.30
2015,08,19,14,51,25.30
2015,08,19,14,52,25.30
2015,08,19,14,53,25.40
2015,08,19,14,54,25.40
2015,08,19,14,55,25.50
2015,08,19,14,56,25.50
2015,08,19,14,57,25.60
2015,08,19,14,58,25.70
2015,08,19,14,59,25.70
2015,08,19,15,00,25.70
2015,08,19,15,01,25.80
2015,08,19,15,02,25.80
2015,08,19,15,03,25.80
2015,08,19,15,04,25.80
2015,08,19,15,05,25.80
2015,08,19,15,06,25.80
2015,08,19,15,07,25.70
2015,08,19,15,08,25.70
2015,08,19,15,09,25.60
2015,08,19,15,10,25.60
2015,08,19,15,11,25.60
2015,08,19,15,12,25.60
2015,08,19,15,13,25.70
2015,08,19,15,14,25.70
2015,08,19,15,15,25.70
2015,08,19,15,16,25.60
2015,08,19,15,17,25.60
2015,08,19,15,18,25.60
2015,08,19,15,19,25.60
2015,08,19,15,20,25.70
2015,08,19,15,21,25.70
2015,08,19,15,22,25.60
2015,08,19,15,23,25.60
2015,08,19,15,24,25.60
2015,08,19,15,25,25.70
2015,08,19,15,26,25.80
2015,08,19,15,27,25.80
2015,08,19,15,28,25.70
2015,08,19,15,29,25.70
2015,08,19,15,30,25.80
2015,08,19,15,31,25.80
2015,08,19,15,32,25.80
2015,08,19,15,33,25.70
2015,08,19,15,34,25.70
2015,08,19,15,35,25.70
2015,08,19,15,36,25.60
2015,08,19,15,37,25.50
2015,08,19,15,38,25.40
2015,08,19,15,39,25.40
2015,08,19,15,40,25.30
2015,08,19,15,41,25.20
2015,08,19,15,42,25.20
2015,08,19,15,43,25.30
2015,08,19,15,44,25.30
2015,08,19,15,45,25.30
2015,08,19,15,46,25.30
2015,08,19,15,47,25.30
2015,08,19,15,48,25.20
2015,08,19,15,49,25.20
2015,08,19,15,50,25.20
2015,08,19,15,51,25.10
2015,08,19,15,52,25.10
2015,08,19,15,53,25.10
2015,08,19,15,54,25.10
2015,08,19,15,55,25.10
2015,08,19,15,56,25.10
2015,08,19,15,57,25.10
2015,08,19,15,58,25.10
2015,08,19,15,59,25.10
2015,08,19,16,00,25.10
2015,08,19,16,01,25.10
2015,08,19,16,02,25.00
2015,08,19,16,03,25.00
2015,08,19,16,04,24.90
2015,08,19,16,05,24.90
2015,08,19,16,06,24.90
2015,08,19,16,07,24.90
2015,08,19,16,08,24.80
2015,08,19,16,09,24.70
2015,08,19,16,10,24.70
2015,08,19,16,11,24.60
2015,08,19,16,12,24.50
2015,08,19,16,13,24.50
2015,08,19,16,14,24.40
2015,08,19,16,15,24.40
2015,08,19,16,16,24.30
2015,08,19,16,17,24.30
2015,08,19,16,18,24.30
2015,08,19,16,19,24.30
2015,08,19,16,20,24.30
2015,08,19,16,21,24.30
2015,08,19,16,22,24.30
2015,08,19,16,23,24.30
2015,08,19,16,24,24.40
2015,08,19,16,25,24.40
2015,08,19,16,26,24.50
2015,08,19,16,27,24.50
2015,08,19,16,28,24.60
2015,08,19,16,29,24.60
2015,08,19,16,30,24.70
2015,08,19,16,31,24.80
2015,08,19,16,32,24.80
2015,08,19,16,33,24.90
2015,08,19,16,34,24.90
2015,08,19,16,35,24.90
2015,08,19,16,36,25.00
2015,08,19,16,37,25.00
2015,08,19,16,38,25.00
2015,08,19,16,39,24.90
2015,08,19,16,40,25.00
2015,08,19,16,41,25.00
2015,08,19,16,42,25.10
2015,08,19,16,43,25.10
2015,08,19,16,44,25.10
2015,08,19,16,45,25.10
2015,08,19,16,46,25.10
2015,08,19,16,47,25.10
2015,08,19,16,48,25.10
2015,08,19,16,49,25.10
2015,08,19,16,50,25.00
2015,08,19,16,51,25.00
2015,08,19,16,52,25.00
2015,08,19,16,53,25.00
2015,08,19,16,54,25.00
2015,08,19,16,55,25.00
2015,08,19,16,56,25.00
2015,08,19,16,57,24.90
2015,08,19,16,58,24.90
2015,08,19,16,59,24.90
2015,08,19,17,00,24.90
2015,08,19,17,01,24.90
2015,08,19,17,02,24.90
2015,08,19,17,03,24.90
2015,08,19,17,04,24.90
2015,08,19,17,05,24.90
2015,08,19,17,06,24.90
2015,08,19,17,07,24.80
2015,08,19,17,08,24.70
2015,08,19,17,09,24.60
2015,08,19,17,10,24.50
2015,08,19,17,11,24.50
2015,08,19,17,12,24.60
2015,08,19,17,13,24.60
2015,08,19,17,14,24.60
2015,08,19,17,15,24.50
2015,08,19,17,16,24.50
2015,08,19,17,17,24.50
2015,08,19,17,18,24.40
2015,08,19,17,19,24.40